| time (UTC) | temp F | wind direction | speed knots | gust knots | rain 1hr in | rain 24hr in | rain mn in | humidity % | barometer mb |
| 20260503184547 | 59 | 10 | 18.2 | 18.2 | 0.00 | 0.00 | 0.00 | 87 | 1011.0 |
| 20260503181546 | 59 | 10 | 18.2 | 18.2 | 0.00 | 0.00 | 0.00 | 87 | 1011.0 |
| 20260503174543 | 60 | 10 | 18.2 | 18.2 | 0.00 | 0.00 | 0.00 | 85 | 1011.0 |
| 20260503171540 | 62 | 10 | 18.2 | 18.2 | 0.00 | 0.00 | 0.00 | 80 | 1011.0 |
| 20260503081548 | 60 | 100 | 2.6 | 2.6 | 0.00 | 0.00 | 0.00 | 77 | 1013.0 |
| 20260503071541 | 54 | 270 | 2.6 | 2.6 | 0.00 | 0.00 | 0.00 | 83 | 1013.0 |
| 20260503054533 | 55 | 290 | 2.6 | 2.6 | 0.00 | 0.00 | 0.00 | 87 | 1013.0 |
| 20260503051532 | 55 | 290 | 2.6 | 2.6 | 0.00 | 0.00 | 0.00 | 87 | 1013.0 |
| 20260503044529 | 56 | 290 | 2.6 | 2.6 | 0.00 | 0.00 | 0.00 | 87 | 1013.0 |
| 20260503041525 | 56 | 290 | 2.6 | 2.6 | 0.00 | 0.00 | 0.00 | 86 | 1013.0 |
| 20260503034524 | 56 | 290 | 2.6 | 2.6 | 0.00 | 0.00 | 0.00 | 86 | 1013.0 |
| 20260503031521 | 57 | 290 | 2.6 | 2.6 | 0.00 | 0.00 | 0.00 | 86 | 1013.0 |
| 20260503024518 | 57 | 290 | 2.6 | 2.6 | 0.00 | 0.00 | 0.00 | 85 | 1013.0 |
| 20260503021515 | 57 | 290 | 2.6 | 2.6 | 0.00 | 0.00 | 0.00 | 84 | 1013.0 |
| 20260503014513 | 56 | 290 | 2.6 | 2.6 | 0.00 | 0.00 | 0.00 | 81 | 1014.0 |
| 20260503011510 | 56 | 290 | 2.6 | 2.6 | 0.00 | 0.00 | 0.00 | 80 | 1014.0 |
| 20260503004507 | 57 | 290 | 2.6 | 2.6 | 0.00 | 0.00 | 0.00 | 80 | 1014.0 |
| 20260503001604 | 58 | 290 | 2.6 | 2.6 | 0.00 | 0.00 | 0.00 | 82 | 1014.0 |
| 20260502234602 | 58 | 290 | 2.6 | 2.6 | 0.00 | 0.00 | 0.00 | 80 | 1014.0 |
| 20260502231559 | 59 | 290 | 2.6 | 2.6 | 0.00 | 0.00 | 0.00 | 80 | 1014.0 |
| 20260502224556 | 60 | 290 | 2.6 | 2.6 | 0.00 | 0.00 | 0.00 | 80 | 1014.0 |
| 20260502221555 | 60 | 331 | 1.7 | 1.7 | 0.00 | 0.00 | 0.00 | 79 | 1014.0 |
| 20260502214551 | 60 | 160 | 7.0 | 7.0 | 0.00 | 0.00 | 0.00 | 81 | 1015.0 |
| 20260502211549 | 60 | 160 | 7.0 | 7.0 | 0.00 | 0.00 | 0.00 | 78 | 1014.0 |
| 20260502204546 | 60 | 160 | 7.0 | 7.0 | 0.00 | 0.00 | 0.00 | 73 | 1014.0 |
| 20260502201544 | 61 | 160 | 7.0 | 7.0 | 0.00 | 0.00 | 0.00 | 71 | 1013.0 |
| 20260502194542 | 62 | 160 | 7.0 | 7.0 | 0.00 | 0.00 | 0.00 | 70 | 1014.0 |
| 20260502191539 | 62 | 160 | 7.0 | 7.0 | 0.00 | 0.00 | 0.00 | 71 | 1014.0 |